Temperature
10 9 8 8 8 8 9 9 9 9 8 8 7 7 7 8 7 7 6 6 5 5 4 4 4 3 3 3 3 3 3 4 4 4 4 4 4 4 5 5 5 5 6 6
9 8 8 8 8 8 8 8 8 8 8 7 6 6 7 7 6 6 6 5 5 4 4 3 3 3 3 3 3 3 3 3 3 3 3 3 4 4 4 4 4 5 5 5
8 8 8 8 7 7 8 7 7 7 6 7 6 6 7 7 7 6 6 5 5 4 3 3 3 3 3 2 2 2 2 2 2 2 3 3 3 3 3 4 4 4 4 5
8 7 7 7 6 6 7 7 6 6 5 5 7 5 7 6 6 5 5 5 4 4 3 2 2 2 2 2 2 2 2 2 2 2 2 2 2 3 3 3 3 3 4 4
7 6 6 6 6 6 5 6 5 5 5 4 6 5 5 6 5 5 4 4 4 3 3 2 2 2 2 2 2 1 1 1 1 2 2 2 2 2 2 3 3 3 3 3
6 6 6 5 5 5 5 5 5 5 4 4 5 5 5 5 5 5 4 4 3 3 2 2 1 1 1 1 1 1 1 1 1 1 1 1 2 2 2 2 2 2 2 3
6 5 5 5 4 4 4 4 4 4 4 5 6 5 5 5 5 4 3 3 3 2 2 1 1 1 1 1 1 1 1 1 1 1 1 1 1 1 1 2 2 2 2 2
6 6 4 4 4 4 4 4 4 4 5 5 5 4 5 4 4 4 4 3 2 2 1 1 1 0 0 0 0 0 1 1 1 1 1 1 1 1 1 1 1 1 2 2
5 5 4 4 4 3 4 3 4 3 3 3 4 6 5 4 3 3 3 2 2 1 1 1 0 -0 -0 0 0 0 0 0 0 0 0 0 1 1 1 1 1 1 1 1
4 3 4 3 3 3 3 3 2 2 3 3 5 6 4 3 2 2 1 1 1 1 1 0 -0 -0 -0 -0 -0 -0 -0 -0 -0 -0 -0 0 0 0 0 0 1 1 1 1
4 3 3 3 2 2 2 2 2 2 3 3 3 4 3 2 1 1 1 1 1 1 0 -0 -1 -1 -1 -1 -1 -1 -1 -1 -1 -0 -0 -0 -0 -0 -0 0 0 1 1 1
3 2 2 3 2 2 2 2 2 1 1 2 2 2 2 2 1 1 0 1 0 -0 -0 -1 -1 -1 -1 -1 -1 -1 -1 -1 -1 -1 -1 -1 -1 -1 -0 -0 0 0 0 0
2 1 2 2 1 1 1 1 1 0 0 1 1 2 2 1 0 0 -0 -0 -1 -1 -1 -1 -2 -2 -2 -2 -2 -2 -2 -1 -1 -1 -1 -1 -1 -1 -1 -0 -0 -0 -0 -0
1 0 1 2 2 1 0 0 -0 -1 -1 -0 1 1 1 -0 -1 -1 -1 -1 -1 -2 -2 -2 -2 -2 -2 -2 -2 -2 -2 -2 -2 -2 -2 -2 -1 -1 -1 -1 -1 -1 -1 -1
0 -1 0 0 1 1 0 -0 -1 -1 -1 -1 -0 -0 -0 -1 -2 -2 -2 -2 -2 -3 -3 -3 -3 -3 -3 -3 -3 -3 -3 -2 -2 -2 -2 -2 -2 -2 -2 -2 -2 -1 -1 -1
-0 -1 -0 -0 1 0 -0 -0 -1 -1 -1 -1 -1 -1 -1 -2 -2 -2 -3 -3 -3 -3 -4 -4 -4 -4 -4 -3 -3 -3 -3 -3 -3 -3 -2 -2 -2 -2 -2 -2 -2 -2 -2 -2
-1 -1 -1 -0 0 0 -0 -1 -1 -1 -2 -2 -2 -2 -2 -3 -3 -4 -4 -4 -4 -4 -4 -4 -4 -5 -4 -4 -4 -4 -4 -3 -3 -3 -3 -3 -3 -3 -3 -3 -3 -2 -2 -2
-2 -2 -1 -1 -1 -1 -0 -1 -1 -2 -2 -3 -3 -3 -3 -4 -4 -4 -4 -5 -5 -5 -5 -5 -5 -5 -5 -5 -5 -4 -4 -4 -4 -4 -4 -3 -3 -3 -3 -3 -3 -3 -3 -3
-2 -2 -2 -1 -1 -1 -1 -2 -3 -3 -3 -3 -4 -4 -4 -4 -4 -4 -4 -5 -5 -6 -6 -6 -5 -5 -5 -5 -5 -5 -5 -5 -4 -4 -4 -4 -4 -4 -4 -4 -4 -4 -4 -3
-3 -3 -3 -2 -2 -1 -1 -3 -3 -3 -3 -4 -4 -5 -5 -5 -5 -5 -5 -5 -6 -6 -6 -6 -6 -6 -6 -6 -6 -6 -5 -5 -5 -5 -5 -5 -4 -4 -4 -4 -4 -4 -4 -4
-4 -4 -3 -3 -2 -2 -3 -3 -3 -3 -3 -4 -4 -5 -5 -6 -6 -6 -6 -6 -6 -6 -6 -6 -6 -6 -6 -6 -6 -6 -6 -6 -5 -5 -5 -5 -5 -5 -5 -5 -5 -4 -4 -4
-4 -4 -3 -3 -3 -2 -4 -4 -4 -4 -4 -4 -5 -5 -6 -6 -6 -6 -7 -7 -7 -7 -7 -7 -7 -7 -7 -7 -7 -6 -6 -6 -6 -6 -6 -6 -5 -5 -5 -5 -5 -5 -5 -5
-3 -3 -3 -3 -3 -3 -4 -4 -4 -4 -5 -5 -6 -6 -6 -7 -7 -7 -7 -7 -7 -8 -7 -7 -7 -7 -7 -7 -7 -7 -7 -7 -6 -6 -6 -6 -6 -6 -6 -6 -6 -5 -5 -5
-4 -4 -4 -4 -4 -4 -4 -4 -5 -5 -5 -6 -6 -6 -7 -7 -7 -8 -8 -8 -8 -8 -8 -8 -8 -8 -8 -8 -8 -8 -8 -7 -7 -7 -7 -7 -7 -7 -7 -6 -6 -6 -6 -6
-4 -5 -5 -5 -5 -5 -5 -5 -6 -6 -6 -7 -7 -7 -7 -8 -8 -8 -9 -9 -9 -9 -9 -9 -9 -9 -8 -8 -8 -8 -8 -8 -8 -8 -7 -7 -7 -7 -7 -7 -7 -7 -7 -7
-5 -6 -6 -5 -6 -6 -6 -6 -7 -7 -7 -7 -8 -8 -8 -8 -9 -9 -9 -9 -9 -9 -9 -9 -9 -9 -9 -9 -9 -8 -8 -8 -8 -8 -8 -8 -8 -8 -8 -8 -7 -8 -8 -7
Wind_Speed
2 1 1 1 1 4 5 6 8 6 1 4 8 10 9 6 6 6 5 4 4 2 1 1 2 1 1 1 1 0 0 1 0 1 0 0 0 0 1 2 2 2 3 2
2 2 1 2 2 5 6 7 8 5 2 4 8 10 8 7 7 5 4 4 3 1 0 1 2 1 1 1 1 1 1 1 1 1 1 1 1 1 1 0 1 1 2 1
2 1 1 2 3 4 6 5 6 6 7 7 6 7 6 4 4 4 3 2 2 2 1 1 2 1 1 2 1 1 1 1 1 1 1 1 1 1 0 0 1 1 2 0
1 1 1 2 3 3 5 3 5 6 5 4 3 5 5 5 4 4 3 2 1 1 0 1 1 1 2 2 1 1 1 2 2 1 1 2 2 2 2 1 1 0 1 0
1 2 1 2 2 2 3 5 6 6 5 5 5 5 6 4 4 3 2 1 0 0 0 1 2 2 2 1 1 1 2 2 2 2 2 3 2 2 1 1 2 2 1 1
1 1 1 1 2 2 3 5 6 4 2 5 6 5 5 3 3 2 1 1 1 1 1 1 2 2 1 1 1 2 2 3 2 2 2 2 3 3 3 3 3 2 2 2
3 3 2 1 1 0 2 3 3 2 3 5 2 4 5 1 3 3 2 1 2 1 1 1 2 2 2 2 2 2 3 3 3 3 3 3 3 4 4 4 4 3 2 2
4 3 3 1 1 1 2 1 1 3 4 4 2 6 3 3 5 5 4 3 2 1 2 2 2 3 3 3 3 3 3 3 3 3 3 3 3 3 3 3 3 3 2 3
3 2 2 2 1 2 1 1 2 2 4 4 6 4 1 4 4 4 4 3 2 2 2 2 2 3 3 3 4 3 3 3 3 3 3 3 3 3 3 3 3 3 2 2
3 4 2 2 1 1 2 2 0 1 3 5 6 4 2 1 2 2 3 3 3 3 4 3 3 3 3 3 4 2 3 3 2 2 2 3 2 3 3 3 3 3 3 3
3 3 2 2 4 4 2 1 2 3 4 3 5 4 2 2 2 2 3 4 4 4 4 4 4 4 4 3 3 3 3 3 2 2 2 2 2 3 2 2 2 3 3 3
1 2 4 3 2 2 1 2 3 2 4 4 4 5 2 5 4 4 5 6 5 5 5 5 5 4 4 4 4 3 2 2 2 2 2 2 2 1 2 2 2 3 3 3
1 1 4 2 0 1 1 2 1 1 2 4 4 6 2 5 7 7 6 6 6 6 7 6 5 5 5 4 4 3 2 2 2 1 1 1 1 1 1 1 2 2 2 2
1 3 5 6 4 1 4 4 3 3 4 6 8 9 7 6 7 8 7 6 5 6 7 7 7 5 5 5 4 4 4 3 2 2 1 1 2 2 2 1 1 1 2 2
0 4 6 9 10 6 7 7 6 8 8 8 9 10 9 6 6 7 7 7 7 8 8 8 8 7 6 5 5 4 4 4 3 2 2 2 1 1 1 1 1 1 2 2
2 4 4 7 7 7 9 9 8 9 8 10 12 12 6 5 5 6 7 7 8 8 9 9 8 8 7 6 6 5 4 4 3 3 3 2 1 1 1 1 1 1 1 1
2 2 3 5 3 5 7 6 7 6 5 5 8 8 6 7 7 7 7 7 8 9 9 9 8 8 7 6 6 5 5 4 4 4 3 3 2 1 2 2 1 2 1 1
3 3 3 4 3 6 5 1 2 4 5 5 5 5 5 5 6 5 3 5 8 9 9 9 8 7 7 7 6 5 4 4 4 4 4 4 3 2 2 2 1 2 1 1
2 3 3 3 4 7 2 1 0 2 4 2 4 6 6 6 6 2 5 6 6 7 8 7 7 7 6 6 6 4 4 4 4 4 5 4 3 2 2 2 2 2 1 2
1 1 2 3 4 5 3 1 1 0 3 3 2 4 5 5 4 4 6 7 7 7 7 7 7 7 6 7 5 4 4 4 5 5 5 5 4 3 2 2 2 2 2 2
1 2 4 6 6 5 2 2 1 0 4 4 3 3 4 3 3 5 6 6 6 7 7 7 6 6 6 6 6 5 5 5 6 5 5 4 4 4 3 2 2 2 2 2
4 3 4 3 5 6 0 1 1 3 3 3 3 3 3 4 5 5 5 6 6 7 7 7 6 6 6 6 5 6 6 7 6 5 5 4 4 4 3 2 2 2 1 1
5 5 3 5 5 2 1 2 2 1 3 3 3 3 3 5 6 5 5 5 6 7 7 6 6 6 6 6 5 6 7 7 6 6 5 5 4 4 3 3 2 2 2 1
3 1 2 4 5 3 2 2 3 3 3 3 3 3 3 4 5 5 5 5 6 6 6 6 6 7 7 7 6 6 6 6 6 6 6 5 4 4 4 3 2 2 2 2
2 2 3 6 5 4 2 3 3 4 4 4 4 4 3 3 5 4 5 5 5 6 6 6 6 6 7 7 7 7 6 6 6 6 5 5 5 4 3 3 3 3 2 1
1 2 3 4 3 3 5 4 4 4 4 4 4 4 4 3 4 4 4 4 5 5 5 6 6 6 7 7 7 7 6 6 5 5 5 5 4 4 3 3 3 4 4 5
Wind_Direction
170 226 263 294 293 297 302 288 284 286 290 280 261 263 263 231 216 217 214 209 221 229 220 163 148 149 173 182 194 196 327 332 305 308 270 198 177 149 91 50 23 9 0 26
204 234 308 346 308 285 279 284 283 293 341 291 272 268 255 228 205 204 217 220 214 220 19 166 171 164 186 210 239 247 253 267 263 278 272 220 195 199 171 106 43 12 348 6
230 47 13 303 293 290 272 274 299 315 316 260 267 275 219 199 180 183 200 204 187 205 211 229 214 200 208 229 235 254 260 268 271 284 279 253 212 201 209 221 245 15 350 334
250 116 277 275 284 291 284 339 321 308 305 283 243 281 242 185 184 191 199 190 179 202 239 279 271 253 245 236 233 261 266 266 253 250 231 221 217 216 224 211 225 218 346 269
250 125 253 268 307 302 299 324 295 283 271 281 246 247 271 167 202 204 189 160 117 203 246 290 298 270 265 235 219 247 258 250 243 235 236 231 222 215 209 195 209 223 287 236
233 83 3 350 351 312 315 303 270 251 253 259 225 213 272 198 199 173 148 96 39 13 5 342 332 318 300 289 251 238 243 244 238 229 227 227 218 210 206 209 205 213 239 196
227 172 124 35 290 251 316 331 330 300 239 248 198 219 247 170 93 122 135 96 62 24 358 332 319 308 300 283 262 250 244 242 235 225 218 223 232 216 213 213 201 203 227 224
290 255 154 181 315 266 246 300 255 266 278 301 278 239 234 99 69 65 73 84 64 355 324 302 296 307 305 296 284 262 249 251 244 231 228 223 237 228 220 215 200 203 214 222
301 275 68 49 6 326 262 238 328 293 287 278 256 242 120 73 60 51 45 36 19 345 325 307 298 302 304 294 288 271 264 262 253 242 235 228 226 230 214 208 210 208 209 207
313 283 217 140 234 256 320 334 105 233 275 279 275 258 283 356 1 27 17 357 346 343 331 328 324 315 300 291 286 272 269 268 267 269 264 258 230 234 229 214 210 205 201 199
298 266 250 202 203 204 167 201 229 258 259 257 284 279 23 74 57 29 0 354 347 337 328 324 323 317 313 314 311 273 259 266 267 261 263 274 262 242 225 222 223 204 197 197
330 288 268 252 81 55 151 204 174 203 263 246 264 274 25 56 51 28 4 353 353 346 341 337 331 329 326 327 323 312 280 275 272 268 260 262 265 256 239 225 227 213 205 201
352 266 292 284 3 14 241 232 210 215 271 245 246 264 359 33 20 10 356 347 349 349 346 343 338 330 325 323 322 322 326 316 305 294 274 269 267 253 261 250 235 218 213 208
6 243 233 251 282 260 257 238 205 199 229 256 244 267 303 344 345 343 344 343 344 344 344 339 335 329 328 328 328 330 331 330 327 331 313 285 272 257 260 263 257 242 226 211
208 256 259 272 281 271 260 253 220 221 232 243 265 278 293 317 328 333 340 342 347 345 339 336 333 333 332 332 332 333 331 329 329 330 316 300 299 295 280 274 266 250 228 225
219 260 288 280 261 260 271 261 233 236 244 251 271 280 300 331 341 341 341 345 344 337 333 331 332 333 333 330 326 329 328 330 338 329 321 324 332 334 309 291 280 263 246 233
215 234 270 276 288 292 271 250 221 230 227 226 251 270 320 334 338 333 338 350 340 332 331 331 330 329 329 328 328 331 331 342 348 338 335 342 342 328 303 296 307 295 282 262
210 224 245 275 310 256 252 351 193 231 256 238 254 291 319 319 314 310 348 352 341 338 334 330 328 330 332 335 337 338 340 348 351 345 344 346 339 325 317 311 307 304 303 291
217 208 245 260 267 269 263 314 121 234 279 294 270 293 314 325 320 326 22 10 347 334 328 327 329 327 332 335 334 339 345 347 349 343 340 337 334 325 319 315 311 308 314 300
14 173 227 249 257 260 277 325 347 128 276 351 332 306 320 342 332 314 355 354 343 340 337 337 338 341 340 337 339 348 346 346 340 333 329 334 335 328 308 299 306 315 308 295
196 218 229 244 250 263 283 296 56 254 283 337 350 336 330 306 280 305 331 339 342 341 338 340 344 344 338 338 346 349 347 339 330 330 334 338 338 332 321 313 317 319 311 314
195 209 222 227 241 261 8 84 176 251 309 336 339 340 322 306 306 321 333 336 341 342 341 342 344 343 343 346 350 347 339 331 334 338 339 340 341 338 336 347 341 332 328 323
206 205 214 216 233 268 166 226 255 308 310 312 319 322 319 317 315 324 333 335 336 336 338 339 340 340 344 348 350 341 332 334 338 343 343 338 342 346 348 354 345 336 337 319
238 232 244 266 269 284 285 317 338 335 313 318 322 322 323 312 318 326 330 331 332 334 336 339 342 343 342 344 346 341 338 339 342 344 341 341 344 348 352 348 344 344 337 323
264 198 248 262 291 315 304 315 329 340 346 343 338 331 320 317 316 318 322 325 329 331 336 338 338 335 334 338 341 339 342 344 344 343 341 343 345 343 345 348 353 349 354 335
253 224 233 257 288 283 294 317 336 334 334 333 333 333 331 318 310 316 317 320 325 326 330 332 332 331 332 337 339 341 344 346 347 345 343 340 340 340 344 344 343 348 348 349
Height
1497 1500 1501 1499 1500 1499 1498 1497 1496 1492 1491 1493 1492 1489 1485 1485 1486 1487 1488 1489 1490 1490 1490 1490 1490 1490 1490 1490 1490 1490 1490 1490 1491 1491 1491 1492 1493 1494 1496 1497 1498 1499 1500 1502
1498 1500 1500 1499 1499 1499 1498 1498 1495 1490 1491 1492 1490 1486 1481 1480 1481 1483 1484 1485 1486 1487 1487 1487 1487 1487 1487 1487 1487 1487 1487 1488 1488 1488 1489 1490 1490 1492 1493 1494 1495 1496 1497 1499
1498 1500 1500 1499 1500 1499 1497 1498 1495 1496 1493 1489 1490 1486 1478 1477 1478 1480 1482 1483 1484 1484 1484 1484 1484 1484 1484 1484 1484 1484 1484 1484 1485 1485 1486 1487 1488 1489 1490 1491 1491 1492 1494 1495
1498 1500 1500 1500 1500 1500 1499 1497 1497 1497 1499 1496 1490 1494 1477 1475 1477 1478 1480 1481 1481 1482 1482 1482 1481 1481 1481 1481 1481 1481 1481 1481 1482 1482 1482 1483 1484 1484 1486 1487 1488 1489 1490 1492
1498 1499 1500 1501 1501 1501 1500 1498 1498 1497 1498 1498 1490 1494 1481 1473 1476 1477 1478 1479 1479 1480 1480 1479 1479 1478 1478 1478 1478 1478 1479 1479 1479 1479 1480 1480 1481 1482 1483 1484 1485 1486 1488 1489
1500 1500 1501 1501 1501 1501 1501 1499 1496 1496 1498 1500 1487 1491 1481 1475 1473 1474 1476 1477 1477 1478 1478 1478 1477 1476 1476 1475 1475 1475 1475 1475 1476 1476 1477 1477 1478 1478 1480 1480 1481 1483 1484 1485
1499 1500 1501 1502 1502 1502 1503 1504 1503 1501 1499 1491 1481 1484 1481 1471 1471 1473 1475 1475 1476 1477 1476 1475 1474 1473 1472 1472 1472 1472 1472 1472 1472 1473 1473 1474 1474 1475 1476 1477 1478 1480 1481 1482
1500 1501 1502 1502 1502 1504 1503 1503 1507 1507 1497 1487 1485 1483 1476 1472 1472 1473 1474 1475 1476 1476 1475 1474 1473 1471 1470 1469 1468 1468 1468 1468 1469 1469 1469 1470 1471 1471 1472 1473 1475 1476 1478 1478
1504 1501 1503 1503 1503 1503 1503 1505 1504 1506 1501 1501 1484 1472 1473 1473 1473 1474 1474 1475 1475 1475 1474 1473 1471 1469 1468 1466 1465 1465 1464 1465 1465 1465 1465 1466 1467 1468 1469 1470 1471 1473 1474 1475
1506 1508 1503 1504 1504 1505 1505 1504 1508 1509 1506 1499 1480 1473 1477 1477 1476 1476 1476 1475 1475 1474 1473 1471 1469 1467 1465 1464 1463 1462 1462 1461 1461 1462 1462 1462 1463 1464 1465 1466 1467 1468 1470 1471
1507 1509 1505 1504 1505 1504 1507 1507 1506 1505 1500 1502 1494 1485 1478 1477 1477 1477 1476 1476 1475 1474 1472 1469 1467 1465 1463 1461 1460 1459 1458 1458 1458 1458 1458 1458 1459 1460 1461 1462 1463 1464 1465 1467
1508 1509 1507 1501 1502 1502 1502 1502 1505 1511 1506 1501 1500 1492 1478 1477 1477 1477 1477 1476 1475 1473 1471 1468 1466 1463 1461 1459 1458 1456 1456 1455 1455 1454 1455 1455 1456 1456 1458 1458 1459 1461 1462 1463
1510 1512 1510 1501 1505 1506 1504 1503 1504 1507 1507 1503 1499 1491 1479 1478 1478 1478 1477 1476 1474 1472 1469 1467 1464 1462 1459 1458 1456 1454 1454 1453 1452 1452 1452 1452 1453 1453 1454 1454 1456 1456 1457 1459
1510 1512 1511 1504 1498 1501 1504 1503 1505 1507 1508 1502 1493 1486 1481 1481 1480 1479 1477 1475 1473 1471 1469 1466 1463 1461 1458 1456 1454 1453 1452 1451 1450 1450 1449 1449 1449 1450 1450 1451 1451 1452 1454 1455
1511 1512 1507 1503 1498 1498 1499 1499 1502 1504 1500 1499 1489 1486 1481 1482 1481 1479 1477 1475 1472 1470 1468 1465 1463 1459 1457 1454 1452 1451 1450 1449 1448 1448 1447 1447 1447 1447 1447 1448 1448 1449 1450 1451
1509 1510 1506 1502 1496 1497 1495 1493 1495 1497 1496 1493 1489 1485 1481 1481 1480 1478 1477 1475 1472 1470 1467 1465 1462 1459 1456 1454 1452 1450 1449 1448 1447 1446 1445 1445 1445 1445 1445 1445 1445 1446 1447 1447
1509 1510 1508 1501 1494 1494 1493 1489 1490 1490 1489 1490 1489 1484 1480 1480 1479 1478 1476 1475 1472 1470 1467 1464 1460 1458 1455 1453 1451 1449 1448 1446 1445 1444 1443 1442 1442 1442 1442 1442 1442 1443 1443 1444
1507 1508 1506 1502 1499 1499 1487 1484 1483 1485 1485 1485 1483 1482 1481 1480 1478 1477 1476 1474 1471 1469 1466 1463 1460 1456 1454 1452 1450 1448 1447 1445 1443 1442 1441 1441 1440 1440 1439 1439 1439 1439 1440 1440
1503 1505 1505 1502 1500 1490 1485 1484 1485 1486 1485 1483 1483 1481 1480 1478 1476 1474 1474 1472 1471 1468 1465 1462 1459 1456 1453 1451 1449 1447 1445 1444 1442 1441 1440 1439 1438 1437 1437 1436 1436 1437 1437 1437
1503 1504 1507 1501 1500 1494 1486 1485 1483 1485 1485 1482 1481 1480 1479 1478 1478 1475 1473 1471 1469 1466 1464 1461 1458 1455 1453 1450 1448 1446 1444 1442 1441 1440 1439 1438 1437 1435 1434 1434 1434 1434 1434 1435
1507 1506 1505 1502 1499 1489 1487 1484 1483 1488 1485 1482 1480 1480 1479 1479 1479 1476 1472 1470 1468 1465 1463 1460 1457 1454 1452 1449 1447 1445 1443 1441 1441 1439 1438 1436 1435 1434 1433 1432 1432 1432 1432 1432
1502 1503 1502 1499 1498 1492 1486 1485 1487 1486 1482 1481 1479 1479 1478 1477 1475 1473 1471 1468 1466 1464 1461 1459 1456 1453 1451 1449 1446 1444 1442 1441 1439 1437 1436 1434 1433 1431 1430 1429 1429 1429 1429 1430
1495 1495 1494 1494 1491 1485 1483 1483 1483 1482 1480 1479 1478 1477 1476 1474 1472 1471 1469 1467 1464 1462 1460 1458 1455 1452 1450 1448 1446 1443 1441 1440 1438 1436 1434 1432 1431 1429 1428 1428 1427 1427 1427 1427
1490 1489 1490 1489 1484 1483 1482 1481 1481 1480 1479 1477 1476 1475 1473 1471 1470 1469 1467 1465 1463 1461 1459 1457 1454 1451 1449 1447 1445 1443 1441 1439 1436 1434 1432 1430 1429 1428 1427 1426 1426 1425 1425 1425
1488 1489 1489 1486 1483 1481 1479 1479 1479 1477 1476 1475 1474 1473 1471 1470 1468 1467 1465 1464 1462 1460 1457 1455 1453 1450 1448 1446 1443 1441 1439 1437 1435 1432 1431 1429 1428 1426 1425 1425 1424 1424 1423 1423
1487 1488 1488 1484 1482 1481 1479 1477 1476 1475 1473 1473 1472 1470 1469 1468 1467 1465 1464 1462 1460 1458 1456 1453 1451 1449 1447 1444 1442 1440 1438 1436 1434 1431 1430 1428 1427 1425 1424 1423 1423 1422 1422 1421